Location: Bothwell
(42.3833°S, 147.0000°E)
Time: 21:20:07
(UTC+11:00)

CUBESAT XI-V - Pass Details

Date: 03 October 2022
Orbit: 666 x 689 km, 98.1° (Epoch: 25 November)

Event Time Altitude Azimuth Distance (km) Brightness Sun altitude
Rises 02:28:40 0° 146° (SSE) 3,091 ? -39.8°
Reaches altitude 10° 02:32:09 10° 119° (ESE) 2,167 ? -39.5°
Enters shadow 02:32:42 11° 113° (ESE) 2,076 ? -39.4°
